Weather History for K1M4 - March, 2013

Change the Weather History Date:

Tuesday, March 19, 2013

  Actual Average (KJFX) Record (KJFX)
Temperature  
Mean Temperature 46 °F -  
Max Temperature 59 °F 68 °F 88 °F (1982)
Min Temperature 34 °F 38 °F 25 °F (1967)
Degree Days  
Heating Degree Days 18    
Moisture  
Dew Point 34 °F    
Average Humidity 72    
Maximum Humidity 100    
Minimum Humidity 31    
Precipitation  
Precipitation 0.01 in - - ()
Sea Level Pressure  
Sea Level Pressure 30.13 in    
Wind  
Wind Speed 6 mph (North)    
Max Wind Speed 12 mph    
Max Gust Speed 17 mph    
Visibility 7 miles    
Events Fog    
Averages and records for this station are not official NWS values.
T = Trace of Precipitation, MM = Missing Value Source: NWS Daily Summary

Daily Weather History Graph

Daily Weather History Graph

Search for Another Location

Airport or City:

Trip Planner

Search our weather history database for the weather conditions in past years. The results will help you decide how hot, cold, wet, or windy it might be!

Date:

Astronomy

Mar. 19, 2013 Rise Set
Actual Time 6:55 AM CDT 7:01 PM CDT
Civil Twilight 6:30 AM CDT 7:26 PM CDT
Nautical Twilight 6:00 AM CDT 7:55 PM CDT
Astronomical Twilight 5:31 AM CDT 8:25 PM CDT
Moon 11:59 AM CDT (3/19) 1:33 AM CDT (3/19)
Length of Visible Light 12h 56m
Length of Day
12h 06m
Waxing Crescent, 50% of the Moon is Illuminated
Mar 19
Waxing Crescent
Mar 19
First Quarter
Mar 27
Full
Apr 2
Last Quarter
Apr 10
New

Hourly Weather History & Observations

Time (CDT) Temp. Windchill Dew Point Humidity Pressure Visibility Wind Dir Wind Speed Gust Speed Precip Events Conditions
12:56 AM 43.9 °F 37.9 °F 41.0 °F 90% 30.05 in 10.0 mi North 11.5 mph - N/A   Clear
1:56 AM 43.0 °F 36.8 °F 41.0 °F 93% 30.08 in 10.0 mi North 11.5 mph - N/A   Clear
2:56 AM 41.9 °F 35.9 °F 38.8 °F 89% 30.11 in 10.0 mi North 10.4 mph - N/A   Clear
3:56 AM 41.0 °F 36.4 °F 38.8 °F 92% 30.12 in 10.0 mi North 6.9 mph - N/A   Clear
4:56 AM 38.8 °F - 37.9 °F 97% 30.12 in 10.0 mi Calm Calm - N/A   Clear
5:42 AM 37.4 °F - 35.6 °F 93% 30.07 in 1.5 mi Calm Calm - N/A   Clear
5:44 AM 35.6 °F - 35.6 °F 100% 30.07 in 1.0 mi Calm Calm - N/A   Clear
5:47 AM 35.6 °F - 35.6 °F 100% 30.07 in 0.5 mi Calm Calm - N/A Fog Fog
5:56 AM 36.0 °F - 36.0 °F 100% 30.11 in 1.0 mi Calm Calm - N/A   Clear
5:58 AM 37.4 °F - 37.4 °F 100% 30.07 in 1.8 mi Calm Calm - N/A   Clear
6:01 AM 37.4 °F - 37.4 °F 100% 30.07 in 3.0 mi Calm Calm - N/A   Clear
6:13 AM 35.6 °F - 35.6 °F 100% 30.07 in 1.8 mi Calm Calm - N/A   Clear
6:21 AM 35.6 °F - 35.6 °F 100% 30.07 in 1.2 mi Calm Calm - N/A   Clear
6:24 AM 35.6 °F - 35.6 °F 100% 30.07 in 2.0 mi Calm Calm - N/A   Clear
6:33 AM 35.6 °F - 35.6 °F 100% 30.07 in 5.0 mi Calm Calm - N/A   Clear
6:56 AM 34.9 °F - 34.9 °F 100% 30.11 in 5.0 mi Calm Calm - N/A   Clear
7:56 AM 37.9 °F - 37.9 °F 100% 30.14 in 2.5 mi Calm Calm - N/A   Clear
8:07 AM 39.2 °F - 39.2 °F 100% 30.10 in 6.0 mi Calm Calm - N/A   Clear
8:56 AM 46.9 °F - 37.9 °F 71% 30.15 in 10.0 mi Variable 6.9 mph - N/A   Clear
9:56 AM 50.9 °F - 36.0 °F 57% 30.17 in 10.0 mi Variable 6.9 mph - N/A   Clear
10:56 AM 52.0 °F - 34.0 °F 50% 30.19 in 10.0 mi North 9.2 mph - 0.01 in   Clear
11:56 AM 54.0 °F - 34.0 °F 47% 30.21 in 10.0 mi NNW 6.9 mph - N/A   Clear
12:56 PM 55.9 °F - 30.0 °F 37% 30.21 in 10.0 mi North 11.5 mph 17.3 mph N/A   Partly Cloudy
1:56 PM 56.8 °F - 34.0 °F 42% 30.20 in 10.0 mi North 9.2 mph - N/A   Clear
2:56 PM 59.9 °F - 36.0 °F 41% 30.18 in 10.0 mi NNE 8.1 mph - N/A   Clear
3:56 PM 59.0 °F - 32.0 °F 36% 30.17 in 10.0 mi North 10.4 mph - N/A   Clear
4:56 PM 57.9 °F - 32.0 °F 37% 30.15 in 10.0 mi NNE 8.1 mph - N/A   Clear
5:56 PM 56.8 °F - 26.1 °F 31% 30.14 in 10.0 mi NNE 8.1 mph - N/A   Clear
6:56 PM 52.9 °F - 26.1 °F 35% 30.14 in 10.0 mi North 4.6 mph - N/A   Clear
7:56 PM 50.0 °F - 27.1 °F 41% 30.15 in 10.0 mi North 3.5 mph - N/A   Clear
8:56 PM 47.8 °F - 27.1 °F 45% 30.17 in 10.0 mi North 4.6 mph - N/A   Clear
9:56 PM 45.9 °F 44.6 °F 26.1 °F 46% 30.18 in 10.0 mi NNE 3.5 mph - N/A   Clear
10:56 PM 45.0 °F 41.8 °F 25.2 °F 46% 30.18 in 10.0 mi NNE 5.8 mph - N/A   Clear
11:56 PM 43.9 °F 39.9 °F 23.0 °F 44% 30.20 in 10.0 mi NNE 6.9 mph - N/A   Clear